FIN2WA GCLP-EFHK

Flight info

Callsign FIN2WA
Flight time 5h 22m
Altitude 36000
Route VASTO DCT NIDEB DCT TIGGI DCT ESUTI/N0480F380 DCT PINEK DCT LOTEE DCT FEJAC DCT JSY DCT AKIKI DCT GARMI UN867 AVANT/N0487F390 DCT DIGSU DCT LARGA DCT INBOB M604 DANKO DCT ELKOP DCT LUNIP DCT VATEX DCT IBVUT Y363 LAKUT
Aircraft A359/H-SDE2E3GHIJ3J4J5LM1ORWXY/LB1D1

Departure

Time 2026-05-07 12:33
Airport Gran Canaria Airport (GCLP)

Arrival

Time 2026-05-07 17:55
Airport Helsinki Vantaa Airport (EFHK)
Time Latitude Longitude Altitude Speed Heading
2026-05-07 11:39 27.93378 -15.39022 91 ft 0 kts 291°
2026-05-07 12:21 27.93375 -15.39013 94 ft 3 kts 293°
2026-05-07 12:21 27.93365 -15.38991 90 ft 3 kts 303°
2026-05-07 12:22 27.93352 -15.38971 91 ft 3 kts 316°
2026-05-07 12:22 27.93336 -15.38956 90 ft 3 kts 339°
2026-05-07 12:22 27.93317 -15.38953 90 ft 4 kts 20°
2026-05-07 12:22 27.93315 -15.38954 90 ft 1 kts 21°
2026-05-07 12:26 27.93336 -15.38945 92 ft 7 kts 21°
2026-05-07 12:26 27.93395 -15.38919 92 ft 10 kts 21°
2026-05-07 12:26 27.93440 -15.38863 91 ft 10 kts 81°
2026-05-07 12:27 27.93407 -15.38782 89 ft 13 kts 140°
2026-05-07 12:27 27.93310 -15.38796 86 ft 16 kts 201°
2026-05-07 12:27 27.93206 -15.38841 84 ft 17 kts 202°
2026-05-07 12:27 27.93097 -15.38897 87 ft 17 kts 202°
2026-05-07 12:28 27.92994 -15.38945 87 ft 16 kts 202°
2026-05-07 12:28 27.92889 -15.38993 90 ft 16 kts 202°
2026-05-07 12:28 27.92792 -15.39036 94 ft 14 kts 201°
2026-05-07 12:28 27.92705 -15.39074 96 ft 13 kts 201°
2026-05-07 12:29 27.92625 -15.39108 100 ft 12 kts 200°
2026-05-07 12:29 27.92551 -15.39139 102 ft 11 kts 200°
2026-05-07 12:29 27.92481 -15.39168 103 ft 11 kts 200°
2026-05-07 12:29 27.92413 -15.39198 104 ft 10 kts 202°
2026-05-07 12:30 27.92352 -15.39228 105 ft 9 kts 204°
2026-05-07 12:30 27.92295 -15.39255 106 ft 10 kts 201°
2026-05-07 12:30 27.92220 -15.39287 104 ft 13 kts 200°
2026-05-07 12:30 27.92120 -15.39306 101 ft 17 kts 177°
2026-05-07 12:31 27.91989 -15.39297 98 ft 21 kts 176°
2026-05-07 12:31 27.91911 -15.39255 96 ft 6 kts 114°
2026-05-07 12:31 27.91928 -15.39222 94 ft 6 kts 39°
2026-05-07 12:31 27.91972 -15.39197 94 ft 7 kts 21°
2026-05-07 12:32 27.91975 -15.39195 94 ft 0 kts 22°
2026-05-07 12:32 27.92127 -15.39129 93 ft 55 kts 21°
2026-05-07 12:33 27.93562 -15.38488 222 ft 146 kts 23°
2026-05-07 12:33 27.94463 -15.38073 844 ft 142 kts 22°
2026-05-07 12:33 27.95416 -15.37633 1298 ft 149 kts 20°
2026-05-07 12:34 27.96380 -15.37186 1868 ft 150 kts 22°
2026-05-07 12:34 27.97369 -15.36742 2249 ft 158 kts 19°
2026-05-07 12:34 27.98449 -15.36304 2473 ft 173 kts 18°
2026-05-07 12:34 27.99634 -15.35821 2684 ft 189 kts 18°
2026-05-07 12:35 28.00912 -15.35341 2911 ft 205 kts 16°
2026-05-07 12:35 28.02346 -15.34854 3109 ft 224 kts 15°
2026-05-07 12:35 28.03900 -15.34327 3389 ft 240 kts 15°
2026-05-07 12:35 28.05521 -15.33769 3849 ft 247 kts 15°
2026-05-07 12:36 28.07192 -15.33191 4286 ft 256 kts 15°
2026-05-07 12:36 28.08921 -15.32589 4755 ft 263 kts 14°
2026-05-07 12:36 28.10684 -15.31975 5268 ft 267 kts 14°
2026-05-07 12:36 28.12465 -15.31351 5843 ft 269 kts 14°
2026-05-07 12:37 28.14265 -15.30721 6378 ft 272 kts 14°
2026-05-07 12:37 28.16080 -15.30086 6891 ft 275 kts 14°
2026-05-07 12:37 28.17919 -15.29443 7371 ft 278 kts 14°
2026-05-07 12:37 28.19782 -15.28790 7864 ft 281 kts 14°
2026-05-07 12:38 28.21666 -15.28131 8359 ft 285 kts 14°
2026-05-07 12:38 28.23573 -15.27462 8848 ft 288 kts 14°
2026-05-07 12:38 28.25501 -15.26786 9338 ft 292 kts 15°
2026-05-07 12:38 28.27431 -15.26109 9838 ft 295 kts 15°
2026-05-07 12:39 28.29411 -15.25415 10219 ft 301 kts 15°
2026-05-07 12:39 28.31458 -15.24696 10422 ft 314 kts 15°
2026-05-07 12:39 28.33513 -15.23696 10590 ft 329 kts 28°
2026-05-07 12:39 28.35500 -15.22292 10799 ft 342 kts 31°
2026-05-07 12:40 28.37517 -15.20773 10973 ft 354 kts 32°
2026-05-07 12:40 28.39601 -15.19200 11167 ft 365 kts 31°
2026-05-07 12:40 28.41750 -15.17585 11337 ft 376 kts 31°
2026-05-07 12:40 28.43964 -15.15924 11508 ft 385 kts 31°
2026-05-07 12:41 28.46201 -15.14248 11696 ft 394 kts 31°
2026-05-07 12:41 28.48501 -15.12525 11995 ft 398 kts 31°
2026-05-07 12:41 28.50826 -15.10783 12311 ft 402 kts 31°
2026-05-07 12:41 28.53173 -15.09024 12659 ft 405 kts 31°
2026-05-07 12:42 28.55534 -15.07253 12992 ft 408 kts 31°
2026-05-07 12:42 28.57916 -15.05467 13318 ft 411 kts 31°
2026-05-07 12:42 28.60312 -15.03669 13638 ft 414 kts 31°
2026-05-07 12:42 28.62735 -15.01850 13958 ft 417 kts 31°
2026-05-07 12:43 28.65172 -15.00020 14235 ft 420 kts 31°
2026-05-07 12:43 28.67585 -14.98206 14527 ft 422 kts 31°
2026-05-07 12:43 28.70048 -14.96354 14842 ft 425 kts 31°
2026-05-07 12:43 28.72529 -14.94488 15124 ft 428 kts 31°
2026-05-07 12:44 28.75021 -14.92612 15420 ft 430 kts 31°
2026-05-07 12:44 28.76678 -14.91364 15615 ft 432 kts 31°
2026-05-07 12:44 28.79197 -14.89465 15906 ft 435 kts 31°
2026-05-07 12:44 28.82561 -14.86929 16304 ft 438 kts 31°
2026-05-07 12:45 28.85111 -14.85005 16598 ft 441 kts 31°
2026-05-07 12:45 28.87678 -14.83067 16888 ft 443 kts 31°
2026-05-07 12:45 28.89390 -14.81776 17078 ft 445 kts 31°
2026-05-07 12:45 28.91982 -14.79817 17364 ft 447 kts 31°
2026-05-07 12:46 28.94587 -14.77846 17648 ft 450 kts 31°
2026-05-07 12:46 28.97206 -14.75863 17928 ft 452 kts 31°
2026-05-07 12:46 28.99836 -14.73871 18213 ft 454 kts 31°
2026-05-07 12:46 29.02485 -14.71864 18474 ft 457 kts 30°
2026-05-07 12:47 29.05111 -14.69873 18699 ft 460 kts 30°
2026-05-07 12:47 29.07784 -14.67845 18960 ft 461 kts 30°
2026-05-07 12:47 29.10463 -14.65810 19214 ft 463 kts 30°
2026-05-07 12:47 29.13155 -14.63766 19470 ft 464 kts 30°
2026-05-07 12:48 29.15855 -14.61713 19727 ft 466 kts 30°
2026-05-07 12:48 29.18561 -14.59655 19968 ft 468 kts 30°
2026-05-07 12:48 29.21278 -14.57587 20210 ft 469 kts 30°
2026-05-07 12:48 29.23973 -14.55534 20443 ft 471 kts 30°
2026-05-07 12:49 29.26710 -14.53449 20678 ft 473 kts 30°
2026-05-07 12:49 29.29450 -14.51359 20930 ft 475 kts 30°
2026-05-07 12:49 29.32215 -14.49250 21168 ft 476 kts 30°
2026-05-07 12:49 29.34977 -14.47140 21384 ft 478 kts 30°
2026-05-07 12:50 29.37751 -14.45021 21624 ft 480 kts 30°
2026-05-07 12:50 29.40538 -14.42890 21863 ft 482 kts 30°
2026-05-07 12:50 29.43331 -14.40753 22093 ft 483 kts 30°
2026-05-07 12:50 29.46136 -14.38605 22329 ft 485 kts 30°
2026-05-07 12:51 29.48949 -14.36450 22549 ft 487 kts 30°
2026-05-07 12:51 29.51770 -14.34287 22780 ft 488 kts 30°
2026-05-07 12:51 29.54568 -14.32141 22981 ft 490 kts 30°
2026-05-07 12:51 29.57405 -14.29963 23227 ft 491 kts 30°
2026-05-07 12:52 29.60253 -14.27775 23442 ft 493 kts 30°
2026-05-07 12:52 29.63116 -14.25574 23667 ft 495 kts 30°
2026-05-07 12:52 29.65988 -14.23365 23803 ft 497 kts 30°
2026-05-07 12:52 29.68863 -14.21152 23990 ft 498 kts 30°
2026-05-07 12:53 29.71756 -14.18923 24188 ft 499 kts 31°
2026-05-07 12:53 29.74609 -14.16723 24374 ft 500 kts 30°
2026-05-07 12:53 29.77506 -14.14490 24570 ft 501 kts 30°
2026-05-07 12:53 29.80407 -14.12252 24755 ft 502 kts 30°
2026-05-07 12:54 29.83312 -14.10007 24948 ft 503 kts 30°
2026-05-07 12:54 29.86221 -14.07756 25132 ft 504 kts 30°
2026-05-07 12:54 29.89135 -14.05500 25304 ft 505 kts 30°
2026-05-07 12:54 29.92063 -14.03233 25489 ft 506 kts 30°
2026-05-07 12:55 29.94995 -14.00961 25677 ft 507 kts 30°
2026-05-07 12:55 29.97889 -13.98717 25849 ft 508 kts 30°
2026-05-07 12:55 30.00830 -13.96435 26032 ft 509 kts 30°
2026-05-07 12:55 30.03773 -13.94150 26223 ft 510 kts 30°
2026-05-07 12:56 30.06725 -13.91855 26404 ft 511 kts 30°
2026-05-07 12:56 30.09693 -13.89548 26581 ft 513 kts 30°
2026-05-07 12:56 30.12656 -13.87242 26768 ft 514 kts 30°
2026-05-07 12:56 30.15623 -13.84931 26959 ft 515 kts 30°
2026-05-07 12:57 30.18603 -13.82608 27165 ft 515 kts 30°
2026-05-07 12:57 30.21577 -13.80289 27339 ft 517 kts 30°
2026-05-07 12:57 30.24521 -13.77991 27549 ft 518 kts 30°
2026-05-07 12:57 30.27519 -13.75650 27702 ft 520 kts 30°
2026-05-07 12:58 30.30522 -13.73302 27898 ft 521 kts 30°
2026-05-07 12:58 30.33532 -13.70947 28069 ft 522 kts 30°
2026-05-07 12:58 30.36543 -13.68591 28264 ft 523 kts 30°
2026-05-07 12:58 30.39565 -13.66223 28435 ft 524 kts 30°
2026-05-07 12:59 30.42592 -13.63850 28627 ft 525 kts 30°
2026-05-07 12:59 30.45624 -13.61470 28795 ft 527 kts 30°
2026-05-07 12:59 30.48662 -13.59085 28964 ft 528 kts 30°
2026-05-07 12:59 30.51763 -13.56809 29123 ft 526 kts 26°
2026-05-07 13:00 30.54904 -13.54734 29334 ft 527 kts 25°
2026-05-07 13:00 30.58123 -13.52697 29469 ft 528 kts 24°
2026-05-07 13:00 30.61371 -13.50681 29612 ft 529 kts 24°
2026-05-07 13:00 30.64633 -13.48668 29793 ft 530 kts 24°
2026-05-07 13:01 30.67899 -13.46645 29953 ft 532 kts 24°
2026-05-07 13:01 30.71168 -13.44611 30121 ft 533 kts 24°
2026-05-07 13:01 30.74434 -13.42568 30306 ft 533 kts 24°
2026-05-07 13:01 30.77697 -13.40520 30555 ft 532 kts 24°
2026-05-07 13:02 30.80947 -13.38475 30816 ft 530 kts 24°
2026-05-07 13:02 30.84185 -13.36434 31072 ft 530 kts 24°
2026-05-07 13:02 30.87431 -13.34388 31221 ft 531 kts 24°
2026-05-07 13:02 30.90640 -13.32364 31468 ft 530 kts 24°
2026-05-07 13:03 30.93880 -13.30317 31774 ft 528 kts 24°
2026-05-07 13:03 30.97112 -13.28274 32065 ft 527 kts 24°
2026-05-07 13:03 31.00337 -13.26234 32343 ft 525 kts 24°
2026-05-07 13:03 31.03546 -13.24204 32618 ft 524 kts 24°
2026-05-07 13:04 31.06749 -13.22176 32891 ft 523 kts 24°
2026-05-07 13:04 31.09948 -13.20149 33152 ft 522 kts 24°
2026-05-07 13:04 31.13138 -13.18126 33453 ft 521 kts 24°
2026-05-07 13:04 31.16326 -13.16104 33657 ft 521 kts 24°
2026-05-07 13:05 31.19476 -13.14104 33893 ft 520 kts 24°
2026-05-07 13:05 31.22657 -13.12082 34133 ft 519 kts 23°
2026-05-07 13:05 31.25834 -13.10061 34335 ft 519 kts 23°
2026-05-07 13:05 31.29003 -13.08044 34560 ft 518 kts 23°
2026-05-07 13:06 31.32169 -13.06027 34772 ft 517 kts 23°
2026-05-07 13:06 31.35329 -13.04012 34983 ft 516 kts 23°
2026-05-07 13:06 31.38483 -13.01999 35197 ft 515 kts 23°
2026-05-07 13:06 31.41585 -13.00018 35437 ft 514 kts 23°
2026-05-07 13:07 31.44738 -12.98005 35551 ft 516 kts 23°
2026-05-07 13:07 31.47890 -12.95990 35713 ft 516 kts 23°
2026-05-07 13:07 31.51044 -12.93972 35924 ft 515 kts 23°
2026-05-07 13:07 31.54193 -12.91955 36024 ft 517 kts 23°
2026-05-07 13:08 31.60541 -12.87889 36026 ft 520 kts 23°
2026-05-07 13:08 31.66893 -12.83807 36026 ft 520 kts 23°
2026-05-07 13:09 31.73244 -12.79720 36028 ft 520 kts 23°
2026-05-07 13:09 31.79605 -12.75623 36021 ft 522 kts 23°
2026-05-07 13:10 31.85920 -12.71546 36020 ft 520 kts 23°
2026-05-07 13:10 31.92266 -12.67444 36020 ft 520 kts 23°
2026-05-07 13:11 31.98622 -12.63330 36053 ft 520 kts 23°
2026-05-07 13:11 32.04939 -12.59236 36020 ft 523 kts 23°
2026-05-07 13:12 32.11330 -12.55086 36019 ft 523 kts 23°
2026-05-07 13:12 32.17708 -12.50937 36020 ft 523 kts 23°
2026-05-07 13:13 32.24092 -12.46777 36019 ft 523 kts 23°
2026-05-07 13:13 32.30426 -12.42644 36027 ft 524 kts 23°
2026-05-07 13:14 32.36822 -12.38464 36021 ft 524 kts 23°
2026-05-07 13:14 32.43187 -12.34295 36020 ft 522 kts 23°
2026-05-07 13:15 32.49552 -12.30121 36015 ft 522 kts 23°
2026-05-07 13:15 32.55880 -12.25965 36037 ft 522 kts 23°
2026-05-07 13:16 32.62243 -12.21780 36020 ft 524 kts 23°
2026-05-07 13:16 32.68632 -12.17571 36010 ft 524 kts 23°
2026-05-07 13:17 32.75014 -12.13358 36017 ft 524 kts 24°
2026-05-07 13:17 32.81397 -12.09137 36012 ft 524 kts 24°
2026-05-07 13:18 32.87775 -12.04913 36012 ft 525 kts 24°
2026-05-07 13:18 32.94114 -12.00736 36007 ft 522 kts 21°
2026-05-07 13:19 33.00813 -11.97724 36006 ft 512 kts 11°
2026-05-07 13:19 33.07638 -11.95324 36006 ft 510 kts
2026-05-07 13:20 33.14486 -11.93026 36014 ft 510 kts
2026-05-07 13:20 33.21298 -11.90734 36008 ft 511 kts
2026-05-07 13:21 33.28149 -11.88404 36010 ft 511 kts
2026-05-07 13:21 33.34993 -11.86064 36008 ft 511 kts
2026-05-07 13:22 33.41854 -11.83713 36018 ft 512 kts
2026-05-07 13:22 33.48731 -11.81355 36012 ft 515 kts
2026-05-07 13:23 33.55583 -11.79001 36012 ft 515 kts
2026-05-07 13:23 33.62476 -11.76627 36012 ft 515 kts
2026-05-07 13:24 33.69366 -11.74252 36010 ft 515 kts
2026-05-07 13:24 33.76269 -11.71869 36014 ft 516 kts
2026-05-07 13:25 33.83186 -11.69476 36009 ft 516 kts 10°
2026-05-07 13:25 33.90106 -11.67078 36007 ft 517 kts 10°
2026-05-07 13:26 33.96975 -11.64695 36004 ft 517 kts
2026-05-07 13:26 34.03897 -11.62289 36004 ft 518 kts
2026-05-07 13:27 34.10823 -11.59877 36004 ft 518 kts
2026-05-07 13:27 34.17761 -11.57456 36004 ft 518 kts
2026-05-07 13:28 34.24693 -11.55034 35998 ft 519 kts
2026-05-07 13:28 34.31638 -11.52604 36006 ft 519 kts
2026-05-07 13:29 34.38585 -11.50168 36009 ft 519 kts
2026-05-07 13:29 34.45496 -11.47740 36027 ft 520 kts
2026-05-07 13:30 34.52442 -11.45296 36007 ft 520 kts
2026-05-07 13:30 34.59418 -11.42838 36007 ft 520 kts
2026-05-07 13:31 34.66342 -11.40393 36001 ft 521 kts
2026-05-07 13:31 34.73298 -11.37933 36013 ft 521 kts
2026-05-07 13:32 34.80280 -11.35460 36002 ft 522 kts
2026-05-07 13:32 34.87218 -11.32997 35999 ft 522 kts
2026-05-07 13:33 34.94197 -11.30515 35991 ft 522 kts 10°
2026-05-07 13:33 35.01168 -11.28030 36000 ft 520 kts
2026-05-07 13:34 35.11563 -11.24321 35996 ft 521 kts
2026-05-07 13:35 35.17403 -11.22232 35996 ft 521 kts
2026-05-07 13:35 35.24326 -11.19751 36017 ft 521 kts
2026-05-07 13:36 35.31296 -11.17250 35995 ft 521 kts
2026-05-07 13:36 35.38277 -11.14739 35994 ft 522 kts
2026-05-07 13:37 35.45200 -11.12245 35995 ft 522 kts
2026-05-07 13:37 35.52175 -11.09728 35993 ft 522 kts
2026-05-07 13:38 35.59154 -11.07205 35991 ft 522 kts
2026-05-07 13:38 35.66089 -11.04693 35990 ft 522 kts
2026-05-07 13:39 35.73058 -11.02164 35990 ft 522 kts 10°
2026-05-07 13:39 35.80038 -10.99627 35989 ft 523 kts
2026-05-07 13:40 35.87023 -10.97084 35988 ft 523 kts 10°
2026-05-07 13:40 35.93969 -10.94549 35985 ft 523 kts 10°
2026-05-07 13:41 36.00977 -10.92149 36001 ft 517 kts
2026-05-07 13:41 36.08002 -10.90386 35982 ft 514 kts
2026-05-07 13:42 36.14983 -10.88720 35985 ft 514 kts
2026-05-07 13:42 36.22003 -10.86949 35986 ft 515 kts
2026-05-07 13:43 36.29018 -10.85117 35984 ft 515 kts
2026-05-07 13:43 36.36037 -10.83266 35979 ft 515 kts
2026-05-07 13:44 36.43058 -10.81414 35981 ft 515 kts
2026-05-07 13:44 36.50032 -10.79574 35979 ft 515 kts
2026-05-07 13:45 36.57047 -10.77720 35981 ft 514 kts
2026-05-07 13:45 36.64047 -10.75867 35977 ft 514 kts
2026-05-07 13:46 36.71040 -10.74014 35978 ft 514 kts
2026-05-07 13:46 36.78041 -10.72154 35983 ft 513 kts
2026-05-07 13:47 36.85017 -10.70296 35977 ft 512 kts
2026-05-07 13:47 36.91952 -10.68448 35979 ft 512 kts
2026-05-07 13:48 36.98932 -10.66584 35975 ft 512 kts
2026-05-07 13:48 37.05911 -10.64716 35976 ft 513 kts
2026-05-07 13:49 37.12898 -10.62843 35978 ft 513 kts
2026-05-07 13:49 37.19887 -10.60965 35974 ft 513 kts
2026-05-07 13:50 37.26837 -10.59094 35977 ft 513 kts
2026-05-07 13:50 37.33828 -10.57209 35969 ft 514 kts
2026-05-07 13:51 37.40803 -10.55322 35968 ft 511 kts
2026-05-07 13:51 37.47763 -10.53437 35966 ft 510 kts
2026-05-07 13:52 37.54711 -10.51555 35966 ft 511 kts
2026-05-07 13:52 37.61637 -10.49675 35966 ft 511 kts
2026-05-07 13:53 37.68598 -10.47779 35964 ft 511 kts
2026-05-07 13:53 37.75557 -10.45880 35967 ft 511 kts
2026-05-07 13:54 37.82497 -10.43982 35964 ft 510 kts
2026-05-07 13:54 37.89344 -10.41560 35961 ft 516 kts 11°
2026-05-07 13:55 37.96178 -10.38664 35963 ft 518 kts 12°
2026-05-07 13:55 38.02993 -10.35691 35961 ft 518 kts 12°
2026-05-07 13:56 38.09811 -10.32709 35958 ft 518 kts 12°
2026-05-07 13:56 38.16638 -10.29731 35961 ft 518 kts 12°
2026-05-07 13:57 38.23415 -10.26775 35965 ft 517 kts 12°
2026-05-07 13:57 38.30205 -10.23806 35950 ft 515 kts 12°
2026-05-07 13:58 38.36992 -10.20833 35955 ft 515 kts 12°
2026-05-07 13:58 38.43774 -10.17858 35950 ft 514 kts 12°
2026-05-07 13:59 38.50483 -10.14907 35941 ft 512 kts 12°
2026-05-07 13:59 38.57222 -10.11937 35940 ft 511 kts 12°
2026-05-07 14:00 38.63951 -10.08968 35957 ft 511 kts 12°
2026-05-07 14:00 38.70678 -10.05993 35948 ft 511 kts 13°
2026-05-07 14:01 38.77359 -10.03032 35950 ft 510 kts 13°
2026-05-07 14:01 38.84077 -10.00048 35949 ft 510 kts 13°
2026-05-07 14:02 38.90797 -9.97058 35947 ft 510 kts 13°
2026-05-07 14:02 38.97506 -9.94066 35945 ft 510 kts 13°
2026-05-07 14:03 39.04219 -9.91067 35945 ft 510 kts 13°
2026-05-07 14:03 39.10931 -9.88062 35944 ft 510 kts 13°
2026-05-07 14:04 39.17603 -9.85069 35946 ft 510 kts 13°
2026-05-07 14:04 39.24312 -9.82054 35941 ft 509 kts 13°
2026-05-07 14:05 39.30977 -9.79048 35936 ft 506 kts 13°
2026-05-07 14:05 39.37619 -9.76051 35936 ft 505 kts 13°
2026-05-07 14:06 39.44223 -9.73066 35935 ft 505 kts 13°
2026-05-07 14:06 39.50867 -9.70056 35936 ft 505 kts 13°
2026-05-07 14:07 39.57505 -9.67042 35930 ft 505 kts 13°
2026-05-07 14:07 39.64146 -9.64020 35943 ft 505 kts 13°
2026-05-07 14:08 39.70784 -9.60993 35929 ft 505 kts 13°
2026-05-07 14:08 39.77375 -9.57982 35928 ft 505 kts 13°
2026-05-07 14:09 39.84014 -9.54943 35925 ft 505 kts 13°
2026-05-07 14:09 39.90646 -9.51901 35925 ft 504 kts 13°
2026-05-07 14:10 39.97258 -9.48860 35923 ft 504 kts 13°
2026-05-07 14:10 40.03872 -9.45814 35920 ft 504 kts 13°
2026-05-07 14:11 40.10427 -9.42788 35927 ft 502 kts 13°
2026-05-07 14:11 40.17015 -9.39740 35922 ft 501 kts 13°
2026-05-07 14:12 40.23597 -9.36691 35923 ft 501 kts 13°
2026-05-07 14:12 40.30134 -9.33655 35917 ft 501 kts 13°
2026-05-07 14:13 40.36716 -9.30592 35912 ft 501 kts 13°
2026-05-07 14:13 40.43293 -9.27525 35918 ft 501 kts 13°
2026-05-07 14:14 40.49873 -9.24450 35912 ft 501 kts 13°
2026-05-07 14:14 40.56447 -9.21372 35915 ft 501 kts 14°
2026-05-07 14:15 40.63013 -9.18290 35910 ft 500 kts 14°
2026-05-07 14:15 40.69529 -9.15226 35911 ft 500 kts 14°
2026-05-07 14:16 40.76093 -9.12133 35907 ft 500 kts 14°
2026-05-07 14:16 40.82648 -9.09037 35917 ft 499 kts 14°
2026-05-07 14:17 40.89180 -9.05944 35904 ft 497 kts 14°
2026-05-07 14:17 40.95684 -9.02860 35904 ft 496 kts 14°
2026-05-07 14:18 41.02183 -8.99772 35905 ft 496 kts 14°
2026-05-07 14:18 41.08640 -8.96699 35904 ft 495 kts 14°
2026-05-07 14:19 41.15134 -8.93600 35906 ft 495 kts 14°
2026-05-07 14:19 41.21626 -8.90496 35908 ft 495 kts 14°
2026-05-07 14:20 41.28119 -8.87383 35907 ft 495 kts 14°
2026-05-07 14:20 41.34602 -8.84270 35907 ft 495 kts 14°
2026-05-07 14:21 41.41043 -8.81171 35905 ft 495 kts 14°
2026-05-07 14:21 41.47518 -8.78048 35904 ft 494 kts 14°
2026-05-07 14:22 41.53992 -8.74919 35896 ft 494 kts 14°
2026-05-07 14:22 41.60459 -8.71787 35896 ft 494 kts 14°
2026-05-07 14:23 41.65827 -8.69182 35902 ft 492 kts 14°
2026-05-07 14:23 41.73312 -8.65539 35892 ft 491 kts 14°
2026-05-07 14:24 41.78693 -8.62918 35887 ft 491 kts 14°
2026-05-07 14:24 41.85003 -8.59477 35887 ft 498 kts 22°
2026-05-07 14:25 41.90902 -8.54476 35881 ft 503 kts 28°
2026-05-07 14:25 41.96675 -8.49115 35876 ft 503 kts 30°
2026-05-07 14:26 42.02407 -8.43708 35877 ft 503 kts 30°
2026-05-07 14:26 42.08147 -8.38305 35893 ft 503 kts 30°
2026-05-07 14:27 42.13896 -8.32906 35885 ft 502 kts 30°
2026-05-07 14:27 42.19582 -8.27561 35877 ft 500 kts 30°
2026-05-07 14:28 42.25304 -8.22172 35867 ft 500 kts 30°
2026-05-07 14:28 42.31009 -8.16786 35867 ft 500 kts 30°
2026-05-07 14:29 42.36679 -8.11420 35863 ft 500 kts 30°
2026-05-07 14:29 42.42375 -8.06015 35864 ft 499 kts 30°
2026-05-07 14:30 42.48067 -8.00603 35964 ft 498 kts 30°
2026-05-07 14:30 42.50896 -7.97908 36237 ft 497 kts 30°
2026-05-07 14:30 42.53726 -7.95209 36467 ft 496 kts 30°
2026-05-07 14:30 42.56548 -7.92517 36652 ft 496 kts 30°
2026-05-07 14:31 42.59378 -7.89815 36796 ft 497 kts 30°
2026-05-07 14:31 42.62208 -7.87108 36935 ft 497 kts 31°
2026-05-07 14:31 42.65003 -7.84432 37055 ft 498 kts 31°
2026-05-07 14:31 42.67837 -7.81714 37213 ft 498 kts 31°
2026-05-07 14:32 42.70675 -7.78989 37365 ft 498 kts 31°
2026-05-07 14:32 42.73507 -7.76267 37491 ft 499 kts 31°
2026-05-07 14:32 42.76346 -7.73535 37651 ft 499 kts 31°
2026-05-07 14:32 42.79178 -7.70808 37826 ft 499 kts 31°
2026-05-07 14:33 42.82021 -7.68066 37855 ft 501 kts 31°
2026-05-07 14:33 42.87688 -7.62593 37860 ft 502 kts 31°
2026-05-07 14:34 42.93396 -7.57064 37859 ft 501 kts 32°
2026-05-07 14:34 42.99080 -7.51545 37864 ft 499 kts 32°
2026-05-07 14:35 43.04706 -7.46074 37860 ft 499 kts 32°
2026-05-07 14:35 43.10359 -7.40563 37861 ft 499 kts 32°
2026-05-07 14:36 43.16012 -7.35039 37863 ft 499 kts 32°
2026-05-07 14:36 43.21667 -7.29500 37872 ft 499 kts 32°
2026-05-07 14:37 43.27314 -7.23955 37864 ft 499 kts 32°
2026-05-07 14:37 43.35753 -7.15644 37872 ft 499 kts 32°
2026-05-07 14:38 43.41396 -7.10071 37887 ft 499 kts 32°
2026-05-07 14:38 43.47040 -7.04485 37879 ft 499 kts 32°
2026-05-07 14:39 43.52680 -6.98889 37880 ft 499 kts 32°
2026-05-07 14:39 43.58280 -6.93321 37883 ft 499 kts 32°
2026-05-07 14:40 43.63921 -6.87698 37897 ft 499 kts 33°
2026-05-07 14:40 43.69568 -6.82056 37882 ft 500 kts 33°
2026-05-07 14:41 43.75202 -6.76412 37891 ft 500 kts 33°
2026-05-07 14:41 43.80836 -6.70756 37891 ft 500 kts 33°
2026-05-07 14:42 43.86426 -6.65130 37898 ft 500 kts 33°
2026-05-07 14:42 43.92059 -6.59448 37899 ft 500 kts 33°
2026-05-07 14:43 43.97691 -6.53753 37906 ft 500 kts 33°
2026-05-07 14:43 44.03329 -6.48038 37904 ft 500 kts 33°
2026-05-07 14:44 44.08914 -6.42364 37900 ft 500 kts 34°
2026-05-07 14:44 44.14533 -6.36640 37924 ft 500 kts 34°
2026-05-07 14:45 44.20145 -6.30911 37903 ft 500 kts 34°
2026-05-07 14:45 44.25760 -6.25164 37913 ft 500 kts 34°
2026-05-07 14:46 44.31329 -6.19450 37917 ft 500 kts 34°
2026-05-07 14:46 44.36939 -6.13682 37916 ft 500 kts 34°
2026-05-07 14:47 44.42538 -6.07910 37920 ft 500 kts 34°
2026-05-07 14:47 44.48144 -6.02117 37923 ft 501 kts 34°
2026-05-07 14:48 44.53720 -5.96341 37925 ft 501 kts 34°
2026-05-07 14:48 44.59326 -5.90519 37927 ft 501 kts 34°
2026-05-07 14:49 44.64966 -5.84731 37929 ft 500 kts 31°
2026-05-07 14:49 44.71015 -5.79929 37933 ft 498 kts 25°
2026-05-07 14:50 44.77161 -5.75406 37939 ft 498 kts 25°
2026-05-07 14:50 44.83321 -5.70930 37940 ft 498 kts 25°
2026-05-07 14:51 44.89461 -5.66447 37940 ft 500 kts 25°
2026-05-07 14:51 44.95638 -5.61911 37942 ft 500 kts 25°
2026-05-07 14:52 45.01811 -5.57360 37947 ft 500 kts 25°
2026-05-07 14:52 45.07981 -5.52800 37946 ft 500 kts 25°
2026-05-07 14:53 45.14156 -5.48226 37951 ft 501 kts 25°
2026-05-07 14:53 45.20296 -5.43667 37954 ft 501 kts 25°
2026-05-07 14:54 45.26468 -5.39073 37968 ft 501 kts 25°
2026-05-07 14:54 45.32665 -5.34450 37955 ft 504 kts 26°
2026-05-07 14:55 45.38885 -5.29797 37956 ft 505 kts 26°
2026-05-07 14:55 45.45103 -5.25134 37962 ft 505 kts 26°
2026-05-07 14:56 45.51283 -5.20487 37966 ft 505 kts 26°
2026-05-07 14:56 45.57503 -5.15799 37966 ft 505 kts 26°
2026-05-07 14:57 45.63727 -5.11096 37968 ft 505 kts 26°
2026-05-07 14:57 45.69907 -5.06415 37971 ft 506 kts 26°
2026-05-07 14:58 45.76148 -5.01676 37974 ft 507 kts 26°
2026-05-07 14:58 45.82395 -4.96919 37974 ft 507 kts 26°
2026-05-07 14:59 45.88607 -4.92178 37977 ft 507 kts 26°
2026-05-07 14:59 45.94843 -4.87406 37977 ft 508 kts 26°
2026-05-07 15:00 46.01077 -4.82622 37982 ft 508 kts 26°
2026-05-07 15:00 46.07318 -4.77821 37995 ft 508 kts 26°
2026-05-07 15:01 46.13554 -4.73012 37983 ft 509 kts 26°
2026-05-07 15:01 46.19784 -4.68196 37985 ft 510 kts 27°
2026-05-07 15:02 46.26046 -4.63341 37987 ft 510 kts 27°
2026-05-07 15:02 46.32302 -4.58479 37990 ft 510 kts 27°
2026-05-07 15:03 46.38558 -4.53603 37990 ft 510 kts 27°
2026-05-07 15:03 46.44776 -4.48745 37990 ft 510 kts 27°
2026-05-07 15:04 46.51029 -4.43846 37995 ft 510 kts 27°
2026-05-07 15:04 46.57281 -4.38935 37993 ft 510 kts 27°
2026-05-07 15:05 46.63527 -4.34017 37993 ft 510 kts 27°
2026-05-07 15:05 46.69742 -4.29109 37996 ft 510 kts 27°
2026-05-07 15:06 46.75998 -4.24157 37996 ft 510 kts 27°
2026-05-07 15:06 46.82232 -4.19208 37996 ft 510 kts 27°
2026-05-07 15:07 46.88425 -4.14279 37996 ft 510 kts 27°
2026-05-07 15:07 46.94656 -4.09306 37994 ft 510 kts 27°
2026-05-07 15:08 47.00891 -4.04317 37996 ft 511 kts 27°
2026-05-07 15:08 47.07144 -3.99300 37998 ft 511 kts 27°
2026-05-07 15:09 47.13375 -3.94287 38000 ft 511 kts 27°
2026-05-07 15:09 47.19575 -3.89285 37998 ft 511 kts 27°
2026-05-07 15:10 47.25806 -3.84245 38001 ft 511 kts 27°
2026-05-07 15:10 47.30991 -3.80041 38004 ft 511 kts 27°
2026-05-07 15:11 47.37215 -3.74982 38000 ft 510 kts 28°
2026-05-07 15:11 47.43432 -3.69914 38000 ft 511 kts 28°
2026-05-07 15:12 47.49659 -3.64825 38001 ft 511 kts 28°
2026-05-07 15:12 47.55853 -3.59750 37999 ft 511 kts 28°
2026-05-07 15:13 47.62078 -3.54634 37996 ft 511 kts 28°
2026-05-07 15:13 47.68308 -3.49500 37993 ft 511 kts 28°
2026-05-07 15:14 47.74529 -3.44359 37993 ft 512 kts 28°
2026-05-07 15:14 47.80758 -3.39197 37993 ft 511 kts 28°
2026-05-07 15:15 47.86937 -3.34063 37998 ft 512 kts 28°
2026-05-07 15:15 47.93167 -3.28873 37993 ft 512 kts 28°
2026-05-07 15:16 47.99392 -3.23672 37995 ft 512 kts 28°
2026-05-07 15:16 48.05621 -3.18452 37985 ft 512 kts 28°
2026-05-07 15:17 48.11839 -3.13228 37982 ft 512 kts 28°
2026-05-07 15:17 48.18050 -3.07995 37982 ft 512 kts 28°
2026-05-07 15:18 48.24231 -3.02773 37982 ft 512 kts 28°
2026-05-07 15:18 48.30441 -2.97511 37982 ft 512 kts 28°
2026-05-07 15:19 48.36646 -2.92238 37983 ft 512 kts 28°
2026-05-07 15:19 48.42848 -2.86953 37984 ft 512 kts 28°
2026-05-07 15:20 48.48996 -2.81700 37985 ft 511 kts 28°
2026-05-07 15:20 48.55183 -2.76398 37987 ft 511 kts 28°
2026-05-07 15:21 48.61367 -2.71084 37988 ft 511 kts 28°
2026-05-07 15:21 48.67550 -2.65756 37988 ft 511 kts 29°
2026-05-07 15:22 48.73725 -2.60419 37992 ft 511 kts 29°
2026-05-07 15:22 48.79647 -2.54591 37998 ft 511 kts 36°
2026-05-07 15:23 48.85342 -2.48080 37996 ft 512 kts 37°
2026-05-07 15:23 48.90981 -2.41463 38009 ft 512 kts 37°
2026-05-07 15:24 48.96621 -2.34813 38012 ft 512 kts 37°
2026-05-07 15:24 49.02233 -2.28194 38015 ft 512 kts 37°
2026-05-07 15:25 49.07869 -2.21539 38021 ft 512 kts 37°
2026-05-07 15:25 49.13463 -2.14915 38021 ft 511 kts 37°
2026-05-07 15:26 49.19082 -2.08242 38021 ft 511 kts 37°
2026-05-07 15:26 49.24309 -2.00868 38011 ft 511 kts 46°
2026-05-07 15:27 49.29149 -1.92883 38022 ft 511 kts 48°
2026-05-07 15:27 49.33921 -1.84786 38015 ft 511 kts 48°
2026-05-07 15:28 49.38651 -1.76727 38012 ft 511 kts 48°
2026-05-07 15:28 49.43417 -1.68608 38018 ft 511 kts 48°
2026-05-07 15:29 49.48180 -1.60483 38021 ft 511 kts 48°
2026-05-07 15:29 49.52915 -1.52390 38021 ft 511 kts 48°
2026-05-07 15:30 49.58369 -1.45419 38021 ft 509 kts 30°
2026-05-07 15:30 49.61548 -1.43020 38020 ft 508 kts 19°
2026-05-07 15:30 49.64932 -1.41508 38021 ft 505 kts
2026-05-07 15:31 49.71919 -1.40386 38020 ft 504 kts
2026-05-07 15:31 49.78897 -1.39806 38028 ft 505 kts
2026-05-07 15:32 49.85919 -1.39269 38014 ft 505 kts
2026-05-07 15:32 49.92939 -1.38679 38042 ft 505 kts
2026-05-07 15:33 49.99951 -1.37929 38034 ft 505 kts
2026-05-07 15:33 50.06871 -1.36368 38046 ft 505 kts
2026-05-07 15:34 50.13818 -1.34650 38025 ft 505 kts
2026-05-07 15:34 50.20761 -1.32899 38038 ft 505 kts
2026-05-07 15:35 50.27700 -1.31153 38045 ft 505 kts
2026-05-07 15:35 50.34650 -1.29408 38045 ft 505 kts
2026-05-07 15:36 50.41605 -1.27660 38065 ft 505 kts
2026-05-07 15:36 50.48502 -1.25552 38053 ft 506 kts 16°
2026-05-07 15:37 50.54886 -1.20879 38052 ft 507 kts 30°
2026-05-07 15:37 50.60911 -1.15070 38049 ft 508 kts 32°
2026-05-07 15:38 50.66842 -1.09096 38061 ft 508 kts 32°
2026-05-07 15:38 50.72807 -1.03081 38053 ft 508 kts 32°
2026-05-07 15:39 50.78772 -0.97090 38052 ft 508 kts 32°
2026-05-07 15:39 50.84533 -0.90615 38053 ft 508 kts 37°
2026-05-07 15:40 50.90060 -0.83715 38054 ft 508 kts 38°
2026-05-07 15:40 50.95566 -0.76705 38056 ft 507 kts 38°
2026-05-07 15:41 51.01066 -0.69676 38046 ft 507 kts 38°
2026-05-07 15:41 51.06562 -0.62647 38044 ft 507 kts 38°
2026-05-07 15:42 51.12044 -0.55621 38044 ft 507 kts 38°
2026-05-07 15:42 51.17505 -0.48601 38046 ft 507 kts 38°
2026-05-07 15:43 51.22992 -0.41527 38044 ft 507 kts 38°
2026-05-07 15:43 51.28474 -0.34435 38047 ft 507 kts 38°
2026-05-07 15:44 51.33958 -0.27318 38055 ft 507 kts 39°
2026-05-07 15:44 51.39403 -0.20229 38050 ft 506 kts 39°
2026-05-07 15:45 51.44874 -0.13082 38040 ft 506 kts 39°
2026-05-07 15:45 51.50337 -0.05925 38040 ft 506 kts 39°
2026-05-07 15:46 51.58483 0.04791 38077 ft 506 kts 39°
2026-05-07 15:47 51.63937 0.11994 38171 ft 506 kts 39°
2026-05-07 15:47 51.66657 0.15596 38381 ft 504 kts 39°
2026-05-07 15:47 51.69334 0.19145 38614 ft 503 kts 39°
2026-05-07 15:47 51.72037 0.22736 38746 ft 503 kts 39°
2026-05-07 15:48 51.74745 0.26338 38860 ft 503 kts 39°
2026-05-07 15:48 51.77448 0.29940 38970 ft 503 kts 39°
2026-05-07 15:48 51.80145 0.33539 39059 ft 503 kts 39°
2026-05-07 15:49 51.85538 0.40753 39293 ft 502 kts 39°
2026-05-07 15:49 51.90892 0.47938 39468 ft 503 kts 39°
2026-05-07 15:50 51.96273 0.55183 39657 ft 502 kts 39°
2026-05-07 15:50 52.01646 0.62440 39810 ft 502 kts 39°
2026-05-07 15:51 52.07178 0.69398 39963 ft 502 kts 34°
2026-05-07 15:51 52.12964 0.75799 40059 ft 504 kts 33°
2026-05-07 15:52 52.18740 0.82211 40066 ft 506 kts 34°
2026-05-07 15:52 52.24510 0.88783 40069 ft 505 kts 35°
2026-05-07 15:53 52.30257 0.95422 40081 ft 505 kts 35°
2026-05-07 15:53 52.35989 1.02075 40075 ft 505 kts 35°
2026-05-07 15:54 52.41687 1.08703 40078 ft 505 kts 35°
2026-05-07 15:54 52.47412 1.15380 40078 ft 505 kts 35°
2026-05-07 15:55 52.53134 1.22072 40080 ft 505 kts 35°
2026-05-07 15:55 52.58856 1.28787 40076 ft 504 kts 35°
2026-05-07 15:56 52.64566 1.35511 40076 ft 505 kts 35°
2026-05-07 15:56 52.70245 1.42223 40075 ft 505 kts 35°
2026-05-07 15:57 52.75948 1.48985 40104 ft 505 kts 35°
2026-05-07 15:57 52.81651 1.55768 40093 ft 505 kts 36°
2026-05-07 15:58 52.87349 1.62567 40101 ft 504 kts 36°
2026-05-07 15:58 52.93049 1.69384 40103 ft 504 kts 35°
2026-05-07 15:59 52.98702 1.76163 40097 ft 504 kts 36°
2026-05-07 15:59 53.04389 1.83013 40100 ft 504 kts 36°
2026-05-07 16:00 53.09103 1.88711 40099 ft 504 kts 36°
2026-05-07 16:00 53.14770 1.95583 40103 ft 504 kts 36°
2026-05-07 16:01 53.20439 2.02481 40103 ft 504 kts 36°
2026-05-07 16:01 53.26109 2.09403 40104 ft 504 kts 36°
2026-05-07 16:02 53.31763 2.16328 40106 ft 503 kts 36°
2026-05-07 16:02 53.37367 2.23215 40103 ft 503 kts 36°
2026-05-07 16:03 53.43009 2.30172 40112 ft 503 kts 36°
2026-05-07 16:03 53.48646 2.37146 40111 ft 503 kts 36°
2026-05-07 16:04 53.54275 2.44135 40109 ft 503 kts 36°
2026-05-07 16:04 53.59868 2.51102 40114 ft 503 kts 36°
2026-05-07 16:05 53.65488 2.58127 40114 ft 503 kts 36°
2026-05-07 16:05 53.71104 2.65170 40120 ft 503 kts 36°
2026-05-07 16:06 53.76721 2.72238 40119 ft 502 kts 36°
2026-05-07 16:06 53.82287 2.79265 40115 ft 502 kts 36°
2026-05-07 16:07 53.87880 2.86352 40119 ft 502 kts 37°
2026-05-07 16:07 53.93488 2.93481 40119 ft 502 kts 37°
2026-05-07 16:08 53.99036 3.00560 40116 ft 502 kts 37°
2026-05-07 16:08 54.04619 3.07706 40116 ft 501 kts 37°
2026-05-07 16:09 54.10201 3.14876 40114 ft 501 kts 37°
2026-05-07 16:09 54.15769 3.22053 40116 ft 501 kts 37°
2026-05-07 16:10 54.21299 3.29206 40119 ft 501 kts 37°
2026-05-07 16:10 54.26858 3.36421 40115 ft 501 kts 37°
2026-05-07 16:11 54.32404 3.43644 40120 ft 501 kts 37°
2026-05-07 16:11 54.37955 3.50899 40118 ft 501 kts 37°
2026-05-07 16:12 54.43463 3.58122 40118 ft 501 kts 37°
2026-05-07 16:12 54.48997 3.65405 40121 ft 500 kts 37°
2026-05-07 16:13 54.54525 3.72706 40120 ft 500 kts 37°
2026-05-07 16:13 54.60055 3.80035 40118 ft 500 kts 37°
2026-05-07 16:14 54.65569 3.87368 40121 ft 500 kts 37°
2026-05-07 16:14 54.71051 3.94685 40122 ft 500 kts 37°
2026-05-07 16:15 54.76558 4.02061 40120 ft 500 kts 37°
2026-05-07 16:15 54.82060 4.09457 40123 ft 500 kts 37°
2026-05-07 16:16 54.87618 4.16576 40125 ft 499 kts 33°
2026-05-07 16:16 54.93429 4.23192 40124 ft 499 kts 32°
2026-05-07 16:17 54.99280 4.29742 40123 ft 500 kts 32°
2026-05-07 16:17 55.05145 4.36315 40123 ft 500 kts 32°
2026-05-07 16:18 55.10991 4.42902 40125 ft 500 kts 32°
2026-05-07 16:18 55.16831 4.49514 40126 ft 500 kts 32°
2026-05-07 16:19 55.22665 4.56146 40126 ft 500 kts 32°
2026-05-07 16:19 55.28470 4.62767 40128 ft 500 kts 32°
2026-05-07 16:20 55.34311 4.69453 40128 ft 501 kts 32°
2026-05-07 16:20 55.40151 4.76161 40126 ft 501 kts 32°
2026-05-07 16:21 55.45955 4.82851 40136 ft 501 kts 32°
2026-05-07 16:21 55.51795 4.89608 40131 ft 502 kts 32°
2026-05-07 16:22 55.57638 4.96392 40118 ft 502 kts 32°
2026-05-07 16:22 55.63476 5.03193 40121 ft 502 kts 32°
2026-05-07 16:23 55.69275 5.09979 40129 ft 502 kts 32°
2026-05-07 16:23 55.75111 5.16833 40131 ft 503 kts 32°
2026-05-07 16:24 55.80958 5.23725 40128 ft 503 kts 32°
2026-05-07 16:24 55.86798 5.30633 40130 ft 503 kts 32°
2026-05-07 16:25 55.92630 5.37556 40128 ft 503 kts 32°
2026-05-07 16:25 55.98421 5.44446 40126 ft 503 kts 32°
2026-05-07 16:26 56.04247 5.51415 40128 ft 503 kts 33°
2026-05-07 16:26 56.10071 5.58407 40125 ft 503 kts 33°
2026-05-07 16:27 56.15888 5.65415 40127 ft 503 kts 33°
2026-05-07 16:27 56.21702 5.72444 40122 ft 503 kts 33°
2026-05-07 16:28 56.27470 5.79443 40127 ft 503 kts 33°
2026-05-07 16:28 56.33272 5.86509 40127 ft 503 kts 33°
2026-05-07 16:29 56.39065 5.93591 40125 ft 503 kts 33°
2026-05-07 16:29 56.44853 6.00693 40129 ft 503 kts 33°
2026-05-07 16:30 56.50644 6.07826 40123 ft 503 kts 33°
2026-05-07 16:30 56.56397 6.14937 40123 ft 504 kts 33°
2026-05-07 16:31 56.62189 6.22126 40124 ft 504 kts 33°
2026-05-07 16:31 56.67981 6.29340 40124 ft 503 kts 33°
2026-05-07 16:32 56.73721 6.36517 40125 ft 504 kts 33°
2026-05-07 16:32 56.79505 6.43776 40116 ft 504 kts 33°
2026-05-07 16:33 56.85282 6.51056 40120 ft 504 kts 33°
2026-05-07 16:33 56.91059 6.58361 40120 ft 504 kts 33°
2026-05-07 16:34 56.96789 6.65636 40125 ft 504 kts 33°
2026-05-07 16:34 57.02162 6.73932 40122 ft 506 kts 43°
2026-05-07 16:35 57.07121 6.83125 40121 ft 506 kts 45°
2026-05-07 16:35 57.12004 6.92480 40121 ft 506 kts 45°
2026-05-07 16:36 57.16852 7.01821 40121 ft 506 kts 45°
2026-05-07 16:36 57.21730 7.11224 40121 ft 507 kts 45°
2026-05-07 16:37 57.26601 7.20634 40120 ft 507 kts 45°
2026-05-07 16:37 57.31471 7.30078 40122 ft 507 kts 45°
2026-05-07 16:38 57.36334 7.39546 40122 ft 507 kts 45°
2026-05-07 16:38 57.41158 7.48978 40122 ft 507 kts 45°
2026-05-07 16:39 57.46009 7.58504 40124 ft 507 kts 45°
2026-05-07 16:39 57.50862 7.68073 40120 ft 508 kts 45°
2026-05-07 16:40 57.55710 7.77671 40121 ft 508 kts 45°
2026-05-07 16:40 57.60551 7.87296 40120 ft 508 kts 45°
2026-05-07 16:41 57.65354 7.96884 40123 ft 508 kts 45°
2026-05-07 16:41 57.70175 8.06551 40122 ft 508 kts 45°
2026-05-07 16:42 57.75000 8.16263 40130 ft 509 kts 45°
2026-05-07 16:42 57.79819 8.26006 40123 ft 509 kts 46°
2026-05-07 16:43 57.84598 8.35709 40122 ft 509 kts 46°
2026-05-07 16:43 57.89407 8.45515 40123 ft 509 kts 46°
2026-05-07 16:44 57.94201 8.55331 40126 ft 509 kts 46°
2026-05-07 16:44 57.99001 8.65200 40127 ft 510 kts 46°
2026-05-07 16:45 58.03789 8.75088 40127 ft 510 kts 46°
2026-05-07 16:45 58.08546 8.84954 40124 ft 510 kts 46°
2026-05-07 16:46 58.13321 8.94900 40126 ft 510 kts 46°
2026-05-07 16:46 58.18093 9.04882 40131 ft 511 kts 46°
2026-05-07 16:47 58.22862 9.14901 40127 ft 511 kts 46°
2026-05-07 16:47 58.27599 9.24896 40127 ft 511 kts 46°
2026-05-07 16:48 58.32357 9.34978 40122 ft 511 kts 46°
2026-05-07 16:48 58.36308 9.43385 40127 ft 512 kts 46°
2026-05-07 16:49 58.41057 9.53529 40127 ft 512 kts 46°
2026-05-07 16:49 58.45797 9.63700 40127 ft 512 kts 46°
2026-05-07 16:50 58.50525 9.73888 40127 ft 512 kts 46°
2026-05-07 16:50 58.55221 9.84053 40127 ft 512 kts 46°
2026-05-07 16:51 58.59929 9.94307 40125 ft 512 kts 47°
2026-05-07 16:51 58.64524 10.04761 40145 ft 512 kts 48°
2026-05-07 16:52 58.69088 10.15343 40126 ft 513 kts 48°
2026-05-07 16:52 58.73625 10.25854 40127 ft 514 kts 48°
2026-05-07 16:53 58.78194 10.36438 40127 ft 514 kts 48°
2026-05-07 16:53 58.82766 10.47064 40127 ft 514 kts 48°
2026-05-07 16:54 58.87324 10.57704 40122 ft 514 kts 48°
2026-05-07 16:54 58.91873 10.68376 40125 ft 514 kts 48°
2026-05-07 16:55 58.96429 10.79113 40125 ft 515 kts 48°
2026-05-07 16:55 59.00943 10.89802 40113 ft 515 kts 49°
2026-05-07 16:56 59.05477 11.00585 40119 ft 516 kts 49°
2026-05-07 16:56 59.12269 11.16834 40135 ft 516 kts 49°
2026-05-07 16:57 59.16785 11.27735 40108 ft 517 kts 50°
2026-05-07 16:57 59.20539 11.39668 40108 ft 520 kts 59°
2026-05-07 16:58 59.23935 11.52164 40101 ft 520 kts 61°
2026-05-07 16:58 59.27252 11.64748 40093 ft 520 kts 61°
2026-05-07 16:59 59.30533 11.77267 40091 ft 521 kts 62°
2026-05-07 16:59 59.33057 11.90614 40095 ft 522 kts 72°
2026-05-07 17:00 59.35142 12.04259 40099 ft 523 kts 73°
2026-05-07 17:00 59.37148 12.18015 40098 ft 524 kts 73°
2026-05-07 17:01 59.39130 12.31702 40095 ft 524 kts 73°
2026-05-07 17:01 59.41122 12.45485 40095 ft 524 kts 73°
2026-05-07 17:02 59.43108 12.59302 39632 ft 524 kts 73°
2026-05-07 17:02 59.44091 12.66187 39247 ft 523 kts 73°
2026-05-07 17:02 59.45071 12.73078 39109 ft 523 kts 73°
2026-05-07 17:03 59.47009 12.86794 39091 ft 524 kts 73°
2026-05-07 17:03 59.48945 13.00622 39091 ft 524 kts 73°
2026-05-07 17:04 59.50866 13.14460 39100 ft 524 kts 74°
2026-05-07 17:04 59.52778 13.28351 39103 ft 525 kts 74°
2026-05-07 17:05 59.54680 13.42292 39101 ft 526 kts 74°
2026-05-07 17:05 59.56566 13.56244 39100 ft 526 kts 74°
2026-05-07 17:06 59.58428 13.70137 39101 ft 526 kts 74°
2026-05-07 17:06 59.60284 13.84119 39091 ft 526 kts 75°
2026-05-07 17:07 59.62125 13.98117 39097 ft 526 kts 75°
2026-05-07 17:07 59.63947 14.12097 39097 ft 525 kts 75°
2026-05-07 17:08 59.65745 14.26019 39097 ft 526 kts 75°
2026-05-07 17:08 59.67541 14.40058 39126 ft 526 kts 75°
2026-05-07 17:09 59.69324 14.54127 39081 ft 527 kts 75°
2026-05-07 17:09 59.71087 14.68166 39092 ft 528 kts 76°
2026-05-07 17:10 59.72847 14.82323 39096 ft 529 kts 76°
2026-05-07 17:10 59.74592 14.96496 39091 ft 529 kts 76°
2026-05-07 17:11 59.76323 15.10692 39091 ft 529 kts 76°
2026-05-07 17:11 59.78024 15.24783 39091 ft 529 kts 76°
2026-05-07 17:12 59.79725 15.39010 39095 ft 530 kts 76°
2026-05-07 17:12 59.81418 15.53319 39091 ft 531 kts 76°
2026-05-07 17:13 59.83092 15.67614 39099 ft 531 kts 77°
2026-05-07 17:13 59.84757 15.81980 39092 ft 533 kts 77°
2026-05-07 17:14 59.86399 15.96298 39092 ft 533 kts 77°
2026-05-07 17:14 59.88037 16.10727 39091 ft 533 kts 77°
2026-05-07 17:15 59.89656 16.25138 39094 ft 533 kts 77°
2026-05-07 17:15 59.91251 16.39496 39091 ft 534 kts 77°
2026-05-07 17:16 59.92841 16.53962 39091 ft 534 kts 77°
2026-05-07 17:16 59.94414 16.68430 39091 ft 534 kts 77°
2026-05-07 17:17 59.95972 16.82919 39090 ft 534 kts 77°
2026-05-07 17:17 59.97516 16.97445 39093 ft 536 kts 77°
2026-05-07 17:18 59.99051 17.12053 39094 ft 537 kts 78°
2026-05-07 17:18 60.00561 17.26580 39098 ft 537 kts 78°
2026-05-07 17:19 60.02066 17.41224 39095 ft 537 kts 78°
2026-05-07 17:19 60.03555 17.55894 39097 ft 537 kts 78°
2026-05-07 17:20 60.05028 17.70577 39106 ft 538 kts 78°
2026-05-07 17:20 60.06477 17.85198 39105 ft 538 kts 78°
2026-05-07 17:21 60.07919 17.99917 39108 ft 538 kts 78°
2026-05-07 17:21 60.09346 18.14675 39144 ft 539 kts 78°
2026-05-07 17:22 60.10757 18.29440 39119 ft 539 kts 78°
2026-05-07 17:22 60.12143 18.44138 39129 ft 539 kts 78°
2026-05-07 17:23 60.13520 18.58918 39126 ft 539 kts 79°
2026-05-07 17:23 60.14883 18.73730 39137 ft 539 kts 79°
2026-05-07 17:24 60.16227 18.88541 39135 ft 539 kts 79°
2026-05-07 17:24 60.17554 19.03353 39132 ft 538 kts 79°
2026-05-07 17:25 60.18856 19.18072 39143 ft 537 kts 79°
2026-05-07 17:25 60.20145 19.32852 39143 ft 536 kts 79°
2026-05-07 17:26 60.21418 19.47647 39143 ft 537 kts 80°
2026-05-07 17:26 60.22675 19.62458 39143 ft 537 kts 80°
2026-05-07 17:27 60.23910 19.77217 39154 ft 537 kts 80°
2026-05-07 17:27 60.25134 19.92047 39154 ft 536 kts 80°
2026-05-07 17:28 60.26341 20.06897 39152 ft 537 kts 80°
2026-05-07 17:28 60.27531 20.21738 39148 ft 536 kts 81°
2026-05-07 17:29 60.28121 20.29173 39025 ft 533 kts 81°
2026-05-07 17:29 60.28697 20.36492 38777 ft 524 kts 81°
2026-05-07 17:29 60.29255 20.43641 38074 ft 524 kts 81°
2026-05-07 17:29 60.29818 20.50912 37408 ft 523 kts 80°
2026-05-07 17:30 60.30375 20.58151 36783 ft 521 kts 80°
2026-05-07 17:30 60.30927 20.65372 36168 ft 521 kts 80°
2026-05-07 17:30 60.31475 20.72599 35527 ft 522 kts 80°
2026-05-07 17:30 60.32021 20.79857 34856 ft 523 kts 79°
2026-05-07 17:31 60.32567 20.87145 34122 ft 526 kts 79°
2026-05-07 17:31 60.33110 20.94465 33272 ft 529 kts 79°
2026-05-07 17:31 60.33653 21.01823 32494 ft 530 kts 79°
2026-05-07 17:31 60.34191 21.09198 31698 ft 532 kts 79°
2026-05-07 17:32 60.34728 21.16598 30885 ft 534 kts 80°
2026-05-07 17:32 60.35256 21.23950 30036 ft 537 kts 80°
2026-05-07 17:32 60.35795 21.31517 29206 ft 536 kts 80°
2026-05-07 17:32 60.36142 21.36442 28926 ft 534 kts 81°
2026-05-07 17:33 60.36677 21.46429 28222 ft 532 kts 84°
2026-05-07 17:33 60.36941 21.53767 27611 ft 528 kts 85°
2026-05-07 17:33 60.37170 21.61160 27001 ft 525 kts 86°
2026-05-07 17:33 60.37395 21.68506 26381 ft 521 kts 85°
2026-05-07 17:34 60.37630 21.75799 25783 ft 518 kts 85°
2026-05-07 17:34 60.37876 21.83055 25167 ft 515 kts 85°
2026-05-07 17:34 60.38129 21.90267 24558 ft 512 kts 85°
2026-05-07 17:34 60.38296 21.95014 24175 ft 510 kts 85°
2026-05-07 17:35 60.38630 22.04533 23288 ft 506 kts 85°
2026-05-07 17:35 60.38872 22.11505 22734 ft 500 kts 86°
2026-05-07 17:35 60.39112 22.18489 22097 ft 496 kts 86°
2026-05-07 17:35 60.39345 22.25405 21520 ft 491 kts 86°
2026-05-07 17:36 60.39573 22.32262 20935 ft 486 kts 86°
2026-05-07 17:36 60.39721 22.36785 20548 ft 482 kts 85°
2026-05-07 17:36 60.39939 22.43522 19964 ft 477 kts 85°
2026-05-07 17:36 60.40152 22.50188 19373 ft 473 kts 85°
2026-05-07 17:37 60.40360 22.56808 18794 ft 469 kts 85°
2026-05-07 17:37 60.40562 22.63368 18174 ft 465 kts 85°
2026-05-07 17:37 60.40765 22.69860 17597 ft 458 kts 85°
2026-05-07 17:37 60.40960 22.76248 17013 ft 453 kts 85°
2026-05-07 17:38 60.41149 22.82570 16427 ft 447 kts 85°
2026-05-07 17:38 60.41334 22.88813 15851 ft 442 kts 86°
2026-05-07 17:38 60.41512 22.94910 15424 ft 436 kts 86°
2026-05-07 17:38 60.41692 23.01031 15151 ft 436 kts 85°
2026-05-07 17:39 60.41897 23.07162 14411 ft 435 kts 85°
2026-05-07 17:39 60.42105 23.13264 13715 ft 433 kts 85°
2026-05-07 17:39 60.42305 23.19305 13054 ft 428 kts 85°
2026-05-07 17:39 60.42494 23.25155 12402 ft 406 kts 85°
2026-05-07 17:40 60.42670 23.30710 11787 ft 386 kts 85°
2026-05-07 17:40 60.42836 23.36042 11458 ft 370 kts 85°
2026-05-07 17:40 60.42991 23.41068 11321 ft 355 kts 85°
2026-05-07 17:40 60.43139 23.45953 11187 ft 340 kts 85°
2026-05-07 17:41 60.43280 23.50641 11049 ft 326 kts 85°
2026-05-07 17:41 60.43414 23.55139 10908 ft 314 kts 85°
2026-05-07 17:41 60.43541 23.59454 10788 ft 301 kts 85°
2026-05-07 17:41 60.43663 23.63615 10648 ft 290 kts 86°
2026-05-07 17:42 60.43778 23.67632 10416 ft 285 kts 86°
2026-05-07 17:42 60.43897 23.71746 10177 ft 296 kts 86°
2026-05-07 17:42 60.44015 23.75931 10096 ft 301 kts 86°
2026-05-07 17:42 60.44135 23.80211 10089 ft 306 kts 86°
2026-05-07 17:43 60.44252 23.84472 10089 ft 307 kts 86°
2026-05-07 17:43 60.44369 23.88795 10051 ft 307 kts 86°
2026-05-07 17:43 60.44485 23.93118 9775 ft 306 kts 86°
2026-05-07 17:43 60.44600 23.97421 9367 ft 305 kts 86°
2026-05-07 17:44 60.44712 24.01704 8954 ft 303 kts 86°
2026-05-07 17:44 60.44827 24.05950 8549 ft 300 kts 85°
2026-05-07 17:44 60.45044 24.10136 8154 ft 299 kts 82°
2026-05-07 17:44 60.45306 24.14300 7754 ft 296 kts 82°
2026-05-07 17:45 60.45558 24.18412 7370 ft 293 kts 82°
2026-05-07 17:45 60.45788 24.22414 6967 ft 279 kts 83°
2026-05-07 17:45 60.45596 24.26197 6579 ft 265 kts 110°
2026-05-07 17:45 60.44665 24.29309 6172 ft 254 kts 128°
2026-05-07 17:46 60.43966 24.32470 5770 ft 242 kts 95°
2026-05-07 17:46 60.44107 24.35738 5386 ft 235 kts 66°
2026-05-07 17:46 60.44852 24.38650 5119 ft 232 kts 55°
2026-05-07 17:46 60.45499 24.41676 5069 ft 236 kts 74°
2026-05-07 17:47 60.45704 24.44983 5016 ft 238 kts 85°
2026-05-07 17:47 60.45743 24.48290 4906 ft 229 kts 86°
2026-05-07 17:47 60.45749 24.51438 4658 ft 225 kts 87°
2026-05-07 17:47 60.45747 24.54593 4346 ft 223 kts 88°
2026-05-07 17:48 60.45753 24.57728 4020 ft 222 kts 85°
2026-05-07 17:48 60.46177 24.60637 3723 ft 213 kts 53°
2026-05-07 17:48 60.47117 24.62888 3445 ft 208 kts 41°
2026-05-07 17:48 60.48161 24.64941 3157 ft 209 kts 40°
2026-05-07 17:49 60.49226 24.66957 2871 ft 210 kts 40°
2026-05-07 17:49 60.50297 24.68980 2587 ft 210 kts 40°
2026-05-07 17:49 60.51372 24.71004 2306 ft 211 kts 40°
2026-05-07 17:49 60.52455 24.73013 2051 ft 210 kts 40°
2026-05-07 17:50 60.53521 24.75035 1991 ft 208 kts 46°
2026-05-07 17:50 60.54113 24.77660 1994 ft 208 kts 82°
2026-05-07 17:50 60.53883 24.80502 2028 ft 208 kts 112°
2026-05-07 17:50 60.53210 24.83129 2003 ft 210 kts 119°
2026-05-07 17:51 60.52316 24.85469 1998 ft 213 kts 142°
2026-05-07 17:51 60.50957 24.86525 2005 ft 210 kts 177°
2026-05-07 17:51 60.49507 24.86381 2005 ft 208 kts 188°
2026-05-07 17:51 60.48076 24.86292 1998 ft 204 kts 181°
2026-05-07 17:52 60.46666 24.86369 1995 ft 202 kts 180°
2026-05-07 17:52 60.45260 24.86468 1996 ft 202 kts 180°
2026-05-07 17:52 60.43870 24.86558 1993 ft 203 kts 180°
2026-05-07 17:52 60.42459 24.86693 1985 ft 204 kts 176°
2026-05-07 17:53 60.41150 24.87790 1993 ft 201 kts 149°
2026-05-07 17:53 60.40025 24.89233 1829 ft 183 kts 151°
2026-05-07 17:53 60.38941 24.90416 1554 ft 172 kts 157°
2026-05-07 17:53 60.37898 24.91436 1314 ft 161 kts 156°
2026-05-07 17:54 60.36933 24.92453 1081 ft 151 kts 157°
2026-05-07 17:54 60.36025 24.93407 832 ft 143 kts 156°
2026-05-07 17:54 60.35162 24.94281 647 ft 134 kts 157°
2026-05-07 17:54 60.34337 24.95116 486 ft 132 kts 155°
2026-05-07 17:55 60.33513 24.95972 319 ft 133 kts 155°
2026-05-07 17:55 60.32699 24.96799 182 ft 130 kts 152°
2026-05-07 17:55 60.32015 24.97493 160 ft 77 kts 154°
2026-05-07 17:55 60.31753 24.97746 158 ft 13 kts 174°
2026-05-07 17:56 60.31701 24.97690 159 ft 8 kts 225°
2026-05-07 17:56 60.31667 24.97599 161 ft 7 kts 250°
2026-05-07 17:56 60.31684 24.97511 164 ft 9 kts 314°
2026-05-07 17:56 60.31746 24.97417 166 ft 14 kts 336°
2026-05-07 17:57 60.31844 24.97332 168 ft 16 kts 332°
2026-05-07 17:57 60.31910 24.97260 169 ft 17 kts 332°
2026-05-07 17:57 60.32049 24.97112 172 ft 18 kts 332°
2026-05-07 17:57 60.32165 24.96994 172 ft 20 kts 335°
2026-05-07 17:58 60.32286 24.96872 171 ft 18 kts 333°
2026-05-07 17:58 60.32373 24.96781 174 ft 0 kts 332°
2026-05-07 18:00 60.32380 24.96774 175 ft 5 kts 333°
2026-05-07 18:00 60.32434 24.96709 180 ft 13 kts 320°
2026-05-07 18:00 60.32431 24.96520 181 ft 17 kts 233°
2026-05-07 18:00 60.32349 24.96327 183 ft 19 kts 228°
2026-05-07 18:01 60.32255 24.96116 193 ft 21 kts 228°
2026-05-07 18:01 60.32214 24.96023 183 ft 3 kts 227°
2026-05-07 18:01 60.32204 24.96002 183 ft 0 kts 227°
2026-05-07 18:02 60.32174 24.95934 183 ft 13 kts 227°
2026-05-07 18:02 60.32091 24.95829 182 ft 15 kts 191°
2026-05-07 18:02 60.31987 24.95922 178 ft 18 kts 143°
2026-05-07 18:03 60.31880 24.95850 175 ft 19 kts 224°
2026-05-07 18:03 60.31788 24.95650 176 ft 20 kts 228°
2026-05-07 18:03 60.31696 24.95440 177 ft 21 kts 229°
2026-05-07 18:03 60.31619 24.95269 176 ft 11 kts 228°
2026-05-07 18:04 60.31562 24.95148 176 ft 13 kts 226°
2026-05-07 18:04 60.31491 24.95009 175 ft 15 kts 212°
2026-05-07 18:04 60.31399 24.95082 173 ft 17 kts 137°
2026-05-07 18:04 60.31313 24.95242 172 ft 14 kts 137°
2026-05-07 18:05 60.31238 24.95382 172 ft 14 kts 138°
2026-05-07 18:05 60.31222 24.95410 172 ft 0 kts 137°
2026-05-07 18:05 60.31221 24.95413 172 ft 2 kts 137°
2026-05-07 18:05 60.31210 24.95432 172 ft 2 kts 137°
2026-05-07 18:06 60.31208 24.95436 172 ft 0 kts 137°
2026-05-07 18:06 60.31202 24.95447 172 ft 7 kts 137°
2026-05-07 18:06 60.31166 24.95545 173 ft 10 kts 105°
2026-05-07 18:06 60.31202 24.95682 173 ft 13 kts 49°
2026-05-07 18:07 60.31228 24.95841 173 ft 11 kts 98°
2026-05-07 18:07 60.31245 24.95997 173 ft 13 kts 52°
2026-05-07 18:07 60.31245 24.96109 173 ft 8 kts 126°
2026-05-07 18:07 60.31213 24.96172 173 ft 3 kts 136°
2026-05-07 18:08 60.31211 24.96176 173 ft 0 kts 136°